This is the latest recevied weather packets stored in our database for station/object DL9CN-10. If no packets are shown the sender has not sent any weather packets the latest 10 day(s).
| Time | Temp. | Humidity | Pressure | Rain* | Wind** | Luminosity | Snow |
|---|---|---|---|---|---|---|---|
| 1777300656 | 22.78° C | 41% | 1020.2 hPa | - | - | - | - |
| 1777299756 | 22.78° C | 41% | 1020.3 hPa | - | - | - | - |
| 1777298856 | 22.78° C | 41% | 1020.5 hPa | - | - | - | - |
| 1777297956 | 22.22° C | 41% | 1020.7 hPa | - | - | - | - |
| 1777297056 | 22.22° C | 41% | 1020.9 hPa | - | - | - | - |
| 1777296155 | 21.67° C | 41% | 1021 hPa | - | - | - | - |
| 1777295255 | 21.67° C | 41% | 1021.1 hPa | - | - | - | - |
| 1777294355 | 21.11° C | 41% | 1021.3 hPa | - | - | - | - |
| 1777293455 | 21.11° C | 41% | 1021.3 hPa | - | - | - | - |
| 1777292555 | 20.56° C | 41% | 1021.5 hPa | - | - | - | - |
| 1777291654 | 20.56° C | 41% | 1021.6 hPa | - | - | - | - |
| 1777290754 | 20° C | 41% | 1021.6 hPa | - | - | - | - |
| 1777289854 | 20° C | 42% | 1021.9 hPa | - | - | - | - |
| 1777288954 | 19.44° C | 42% | 1021.9 hPa | - | - | - | - |
| 1777288054 | 18.89° C | 41% | 1021.8 hPa | - | - | - | - |
| 1777287153 | 18.89° C | 41% | 1021.9 hPa | - | - | - | - |
| 1777286252 | 18.33° C | 42% | 1022.1 hPa | - | - | - | - |
| 1777285356 | 17.78° C | 42% | 1022.4 hPa | - | - | - | - |
| 1777284456 | 17.78° C | 42% | 1022.5 hPa | - | - | - | - |
| 1777283556 | 17.22° C | 42% | 1022.7 hPa | - | - | - | - |
| 1777282656 | 17.22° C | 42% | 1022.8 hPa | - | - | - | - |
| 1777281756 | 16.67° C | 42% | 1022.9 hPa | - | - | - | - |
| 1777280855 | 16.11° C | 42% | 1023 hPa | - | - | - | - |
| 1777279955 | 16.11° C | 42% | 1023.3 hPa | - | - | - | - |
| 1777279055 | 15.56° C | 41% | 1023.3 hPa | - | - | - | - |
* Rain since midnight (hover to see other rain measurements)
** Current wind speed in m/s (hover to see current wind gust speed)